Time,TemperatureF,DewpointF,PressureIn,WindDirection,WindDirectionDegrees,WindSpeedMPH,WindSpeedGustMPH,Humidity,HourlyPrecipIn,Conditions,Clouds,dailyrainin,SoftwareType,DateUTC
2013-09-04 00:02:00,57.2,52.7,29.92,SE,143,0.0,0.0,85,0.00,,---,0.00,VWS V14.01,2013-09-04 07:02:00,
2013-09-04 00:07:00,57.2,52.7,29.92,SE,143,0.0,0.0,85,0.00,,---,0.00,VWS V14.01,2013-09-04 07:07:00,
2013-09-04 00:12:00,57.0,52.6,29.92,SE,143,0.0,0.0,85,0.00,,---,0.00,VWS V14.01,2013-09-04 07:12:00,
2013-09-04 00:17:00,56.8,52.7,29.92,SE,143,0.0,0.0,86,0.00,,---,0.00,VWS V14.01,2013-09-04 07:17:00,
2013-09-04 00:22:00,56.7,52.5,29.92,SE,143,0.0,0.0,86,0.00,,---,0.00,VWS V14.01,2013-09-04 07:22:00,
2013-09-04 00:27:00,56.7,52.5,29.92,SE,143,0.0,0.0,86,0.00,,---,0.00,VWS V14.01,2013-09-04 07:27:00,
2013-09-04 00:32:00,56.3,52.2,29.92,SE,143,0.0,0.0,86,0.00,,---,0.00,VWS V14.01,2013-09-04 07:32:00,
2013-09-04 00:37:00,56.1,52.0,29.92,SE,143,0.0,0.0,86,0.00,,---,0.00,VWS V14.01,2013-09-04 07:37:00,
2013-09-04 00:42:00,56.1,52.0,29.92,SE,143,0.0,0.0,86,0.00,,---,0.00,VWS V14.01,2013-09-04 07:42:00,
2013-09-04 00:47:00,55.9,51.8,29.92,SE,143,0.0,0.0,86,0.00,,---,0.00,VWS V14.01,2013-09-04 07:47:00,
2013-09-04 00:52:00,55.9,52.1,29.92,SE,143,0.0,0.0,87,0.00,,---,0.00,VWS V14.01,2013-09-04 07:52:00,
2013-09-04 00:57:00,55.9,52.1,29.92,ESE,103,0.0,0.0,87,0.00,,---,0.00,VWS V14.01,2013-09-04 07:57:00,
2013-09-04 01:02:00,55.8,52.0,29.89,ESE,103,0.0,0.0,87,0.00,,---,0.00,VWS V14.01,2013-09-04 08:02:00,
2013-09-04 01:07:00,55.6,51.8,29.89,ESE,103,0.0,0.0,87,0.00,,---,0.00,VWS V14.01,2013-09-04 08:07:00,
2013-09-04 01:12:00,55.4,51.6,29.89,ESE,103,0.0,0.0,87,0.00,,---,0.00,VWS V14.01,2013-09-04 08:12:00,
2013-09-04 01:17:00,55.2,51.7,29.89,ESE,103,0.0,0.0,88,0.00,,---,0.00,VWS V14.01,2013-09-04 08:17:00,
2013-09-04 01:22:00,55.2,51.7,29.89,ESE,103,0.0,0.0,88,0.00,,---,0.00,VWS V14.01,2013-09-04 08:22:00,
2013-09-04 01:27:00,55.0,51.6,29.89,ESE,103,0.0,0.0,88,0.00,,---,0.00,VWS V14.01,2013-09-04 08:27:00,
2013-09-04 01:32:00,55.0,51.6,29.89,ESE,103,0.0,0.0,88,0.00,,---,0.00,VWS V14.01,2013-09-04 08:32:00,
2013-09-04 01:37:00,54.9,51.4,29.89,ESE,103,0.0,0.0,88,0.00,,---,0.00,VWS V14.01,2013-09-04 08:37:00,
2013-09-04 01:42:00,54.7,51.2,29.89,ESE,103,0.0,0.0,88,0.00,,---,0.00,VWS V14.01,2013-09-04 08:42:00,
2013-09-04 01:48:00,54.5,51.0,29.89,ESE,103,0.0,0.0,88,0.00,,---,0.00,VWS V14.01,2013-09-04 08:48:00,
2013-09-04 01:53:00,54.5,51.0,29.89,ESE,103,0.0,0.0,88,0.00,,---,0.00,VWS V14.01,2013-09-04 08:53:00,
2013-09-04 01:58:00,54.5,51.0,29.89,ESE,103,0.0,0.0,88,0.00,,---,0.00,VWS V14.01,2013-09-04 08:58:00,
2013-09-04 02:03:00,54.5,51.0,29.89,ESE,103,0.0,0.0,88,0.00,,---,0.00,VWS V14.01,2013-09-04 09:03:00,
2013-09-04 02:08:00,54.7,51.2,29.89,ESE,103,0.0,0.0,88,0.00,,---,0.00,VWS V14.01,2013-09-04 09:08:00,
2013-09-04 02:13:00,54.7,51.5,29.89,ESE,103,0.0,0.0,89,0.00,,---,0.00,VWS V14.01,2013-09-04 09:13:00,
2013-09-04 02:18:00,54.7,51.5,29.89,ESE,103,0.0,0.0,89,0.00,,---,0.00,VWS V14.01,2013-09-04 09:18:00,
2013-09-04 02:23:00,54.9,51.7,29.89,ESE,103,0.0,0.0,89,0.00,,---,0.00,VWS V14.01,2013-09-04 09:23:00,
2013-09-04 02:28:00,54.9,51.7,29.89,ESE,103,0.0,0.0,89,0.00,,---,0.00,VWS V14.01,2013-09-04 09:28:00,
2013-09-04 02:33:00,54.9,51.7,29.89,ESE,103,0.0,0.0,89,0.00,,---,0.00,VWS V14.01,2013-09-04 09:33:00,
2013-09-04 02:38:00,55.0,51.9,29.89,East,83,0.0,0.0,89,0.00,,---,0.00,VWS V14.01,2013-09-04 09:38:00,
2013-09-04 02:43:00,55.0,51.9,29.89,NE,46,0.0,0.0,89,0.00,,---,0.00,VWS V14.01,2013-09-04 09:43:00,
2013-09-04 02:48:00,55.2,52.0,29.89,NE,46,0.0,0.0,89,0.00,,---,0.00,VWS V14.01,2013-09-04 09:48:00,
2013-09-04 02:53:00,55.2,52.0,29.89,NE,46,0.0,0.0,89,0.00,,---,0.00,VWS V14.01,2013-09-04 09:53:00,
2013-09-04 02:58:00,55.2,52.0,29.89,NE,46,0.0,0.0,89,0.00,,---,0.00,VWS V14.01,2013-09-04 09:58:00,
2013-09-04 03:03:00,55.2,52.0,29.89,NE,46,0.0,0.0,89,0.00,,---,0.00,VWS V14.01,2013-09-04 10:03:00,
2013-09-04 03:08:00,55.2,52.0,29.89,NE,46,0.0,0.0,89,0.00,,---,0.00,VWS V14.01,2013-09-04 10:08:00,
2013-09-04 03:13:00,55.2,52.0,29.89,NE,46,0.0,0.0,89,0.00,,---,0.00,VWS V14.01,2013-09-04 10:13:00,
2013-09-04 03:18:00,55.2,52.0,29.89,NE,46,0.0,0.0,89,0.00,,---,0.00,VWS V14.01,2013-09-04 10:18:00,
2013-09-04 03:23:00,55.2,52.0,29.89,NE,46,0.0,0.0,89,0.00,,---,0.00,VWS V14.01,2013-09-04 10:23:00,
2013-09-04 03:28:00,55.4,52.2,29.89,NE,46,0.0,0.0,89,0.00,,---,0.00,VWS V14.01,2013-09-04 10:28:00,
2013-09-04 03:33:00,55.4,52.2,29.89,ENE,73,0.0,0.0,89,0.00,,---,0.00,VWS V14.01,2013-09-04 10:33:00,
2013-09-04 03:39:00,55.2,52.0,29.89,ENE,72,0.0,0.0,89,0.00,,---,0.00,VWS V14.01,2013-09-04 10:39:00,
2013-09-04 03:44:00,55.4,52.2,29.89,ENE,62,0.0,0.0,89,0.00,,---,0.00,VWS V14.01,2013-09-04 10:44:00,
2013-09-04 03:49:00,55.6,52.4,29.89,ENE,62,0.0,0.0,89,0.00,,---,0.00,VWS V14.01,2013-09-04 10:49:00,
2013-09-04 03:54:00,55.8,52.6,29.89,ENE,69,0.0,0.0,89,0.00,,---,0.00,VWS V14.01,2013-09-04 10:54:00,
2013-09-04 03:59:00,55.9,52.8,29.89,ENE,69,0.0,0.0,89,0.00,,---,0.00,VWS V14.01,2013-09-04 10:59:00,
2013-09-04 04:04:00,55.9,52.8,29.89,NE,54,0.0,0.0,89,0.00,,---,0.00,VWS V14.01,2013-09-04 11:04:00,
2013-09-04 04:09:00,55.9,52.8,29.89,NE,54,0.0,0.0,89,0.00,,---,0.00,VWS V14.01,2013-09-04 11:09:00,
2013-09-04 04:14:00,55.8,52.6,29.89,NE,54,0.0,0.0,89,0.00,,---,0.00,VWS V14.01,2013-09-04 11:14:00,
2013-09-04 04:19:00,55.8,52.6,29.89,NE,54,0.0,0.0,89,0.00,,---,0.00,VWS V14.01,2013-09-04 11:19:00,
2013-09-04 04:24:00,55.8,52.6,29.89,NE,54,0.0,0.0,89,0.00,,---,0.00,VWS V14.01,2013-09-04 11:24:00,
2013-09-04 04:29:00,55.8,52.6,29.89,NE,54,0.0,0.0,89,0.00,,---,0.00,VWS V14.01,2013-09-04 11:29:00,
2013-09-04 04:34:00,55.8,52.6,29.89,NE,54,0.0,0.0,89,0.00,,---,0.00,VWS V14.01,2013-09-04 11:34:00,
2013-09-04 04:39:00,55.9,52.8,29.89,NE,54,0.0,0.0,89,0.00,,---,0.00,VWS V14.01,2013-09-04 11:39:00,
2013-09-04 04:44:00,55.9,52.8,29.89,NE,54,0.0,0.0,89,0.00,,---,0.00,VWS V14.01,2013-09-04 11:44:00,
2013-09-04 04:49:00,55.9,52.8,29.89,NE,44,0.0,0.0,89,0.00,,---,0.00,VWS V14.01,2013-09-04 11:49:00,
2013-09-04 04:54:00,55.9,52.8,29.89,NE,44,0.0,0.0,89,0.00,,---,0.00,VWS V14.01,2013-09-04 11:54:00,
2013-09-04 04:59:00,55.9,52.8,29.89,NE,44,0.0,0.0,89,0.00,,---,0.00,VWS V14.01,2013-09-04 11:59:00,
2013-09-04 05:04:00,55.9,52.8,29.89,NE,44,0.0,0.0,89,0.00,,---,0.00,VWS V14.01,2013-09-04 12:04:00,
2013-09-04 05:09:00,56.1,52.9,29.89,NE,44,0.0,0.0,89,0.00,,---,0.00,VWS V14.01,2013-09-04 12:09:00,
2013-09-04 05:14:00,56.1,52.9,29.89,NE,44,0.0,0.0,89,0.00,,---,0.00,VWS V14.01,2013-09-04 12:14:00,
2013-09-04 05:19:00,56.1,52.9,29.89,NE,44,0.0,0.0,89,0.00,,---,0.00,VWS V14.01,2013-09-04 12:19:00,
2013-09-04 05:25:00,56.3,53.1,29.89,NE,44,0.0,0.0,89,0.00,,---,0.00,VWS V14.01,2013-09-04 12:25:00,
2013-09-04 05:30:00,56.3,53.1,29.89,NE,44,0.0,0.0,89,0.00,,---,0.00,VWS V14.01,2013-09-04 12:30:00,
2013-09-04 05:35:00,56.3,53.1,29.89,NE,44,0.0,0.0,89,0.00,,---,0.00,VWS V14.01,2013-09-04 12:35:00,
2013-09-04 05:40:00,56.3,53.1,29.89,NE,44,0.0,0.0,89,0.00,,---,0.00,VWS V14.01,2013-09-04 12:40:00,
2013-09-04 05:45:00,56.3,53.1,29.89,ENE,61,0.0,0.0,89,0.00,,---,0.00,VWS V14.01,2013-09-04 12:45:00,
2013-09-04 05:50:00,56.3,53.1,29.89,ENE,61,0.0,0.0,89,0.00,,---,0.00,VWS V14.01,2013-09-04 12:50:00,
2013-09-04 05:55:00,56.5,53.3,29.89,ENE,61,0.0,0.0,89,0.00,,---,0.00,VWS V14.01,2013-09-04 12:55:00,
2013-09-04 06:00:00,56.5,53.3,29.89,ENE,61,0.0,0.0,89,0.00,,---,0.00,VWS V14.01,2013-09-04 13:00:00,
2013-09-04 06:05:00,56.7,53.5,29.89,ENE,61,0.0,0.0,89,0.00,,---,0.00,VWS V14.01,2013-09-04 13:05:00,
2013-09-04 06:10:00,56.7,53.5,29.89,ENE,61,0.0,0.0,89,0.00,,---,0.00,VWS V14.01,2013-09-04 13:10:00,
2013-09-04 06:15:00,56.7,53.5,29.89,ENE,61,0.0,0.0,89,0.00,,---,0.00,VWS V14.01,2013-09-04 13:15:00,
2013-09-04 06:20:00,56.7,53.5,29.89,ENE,61,0.0,0.0,89,0.00,,---,0.00,VWS V14.01,2013-09-04 13:20:00,
2013-09-04 06:25:00,56.7,53.5,29.89,ENE,61,0.0,0.0,89,0.00,,---,0.00,VWS V14.01,2013-09-04 13:25:00,
2013-09-04 06:30:00,56.7,53.5,29.89,ENE,61,0.0,0.0,89,0.00,,---,0.00,VWS V14.01,2013-09-04 13:30:00,
2013-09-04 06:35:00,56.7,53.5,29.89,ENE,61,0.0,0.0,89,0.00,,---,0.00,VWS V14.01,2013-09-04 13:35:00,
2013-09-04 06:40:00,56.7,53.5,29.89,ENE,61,0.0,0.0,89,0.00,,---,0.00,VWS V14.01,2013-09-04 13:40:00,
2013-09-04 06:45:00,56.5,53.3,29.89,ENE,61,0.0,0.0,89,0.00,,---,0.00,VWS V14.01,2013-09-04 13:45:00,
2013-09-04 06:50:00,56.7,53.5,29.89,ENE,61,0.0,0.0,89,0.00,,---,0.00,VWS V14.01,2013-09-04 13:50:00,
2013-09-04 06:55:00,56.7,53.5,29.89,ENE,61,0.0,0.0,89,0.00,,---,0.00,VWS V14.01,2013-09-04 13:55:00,
2013-09-04 07:00:00,56.7,53.5,29.89,ENE,61,0.0,0.0,89,0.00,,---,0.00,VWS V14.01,2013-09-04 14:00:00,
2013-09-04 07:05:00,56.7,53.5,29.89,NE,46,0.0,0.0,89,0.00,,---,0.00,VWS V14.01,2013-09-04 14:05:00,
2013-09-04 07:10:00,56.7,53.5,29.89,NE,46,0.0,0.0,89,0.00,,---,0.00,VWS V14.01,2013-09-04 14:10:00,
2013-09-04 07:15:00,56.7,53.5,29.89,NE,46,0.0,0.0,89,0.00,,---,0.00,VWS V14.01,2013-09-04 14:15:00,
2013-09-04 07:20:00,56.8,53.6,29.89,NE,46,0.0,0.0,89,0.00,,---,0.00,VWS V14.01,2013-09-04 14:20:00,
2013-09-04 07:26:00,56.8,53.6,29.89,NE,46,0.0,0.0,89,0.00,,---,0.00,VWS V14.01,2013-09-04 14:26:00,
2013-09-04 07:31:00,57.0,53.8,29.89,NE,46,0.0,0.0,89,0.00,,---,0.00,VWS V14.01,2013-09-04 14:31:00,
2013-09-04 07:36:00,57.0,53.8,29.89,NE,46,0.0,0.0,89,0.00,,---,0.00,VWS V14.01,2013-09-04 14:36:00,
2013-09-04 07:41:00,57.2,54.0,29.89,NE,46,0.0,0.0,89,0.00,,---,0.00,VWS V14.01,2013-09-04 14:41:00,
2013-09-04 07:46:00,57.4,54.2,29.89,NE,44,0.0,0.0,89,0.00,,---,0.00,VWS V14.01,2013-09-04 14:46:00,
2013-09-04 07:51:00,57.6,54.3,29.89,NE,44,0.0,0.0,89,0.00,,---,0.00,VWS V14.01,2013-09-04 14:51:00,
2013-09-04 07:56:00,57.9,54.7,29.89,NE,44,0.0,0.0,89,0.00,,---,0.00,VWS V14.01,2013-09-04 14:56:00,
2013-09-04 08:01:00,58.1,54.9,29.89,NE,44,0.0,0.0,89,0.00,,---,0.00,VWS V14.01,2013-09-04 15:01:00,
2013-09-04 08:06:00,58.1,54.9,29.89,NE,44,0.0,0.0,89,0.00,,---,0.00,VWS V14.01,2013-09-04 15:06:00,
2013-09-04 08:11:00,58.5,55.2,29.89,NE,44,0.0,0.0,89,0.00,,---,0.00,VWS V14.01,2013-09-04 15:11:00,
2013-09-04 08:16:00,58.6,55.4,29.89,NE,44,0.0,0.0,89,0.00,,---,0.00,VWS V14.01,2013-09-04 15:16:00,
2013-09-04 08:21:00,58.8,55.6,29.89,NE,44,0.0,0.0,89,0.00,,---,0.00,VWS V14.01,2013-09-04 15:21:00,
2013-09-04 08:26:00,59.0,55.8,29.89,NE,44,0.0,0.0,89,0.00,,---,0.00,VWS V14.01,2013-09-04 15:26:00,
2013-09-04 08:31:00,59.2,56.0,29.89,NE,54,0.0,0.0,89,0.00,,---,0.00,VWS V14.01,2013-09-04 15:31:00,
2013-09-04 08:36:00,59.4,56.1,29.89,NE,54,0.0,0.0,89,0.00,,---,0.00,VWS V14.01,2013-09-04 15:36:00,
2013-09-04 08:41:00,59.5,56.3,29.89,NE,54,0.0,0.0,89,0.00,,---,0.00,VWS V14.01,2013-09-04 15:41:00,
2013-09-04 08:46:00,59.7,56.5,29.89,NE,54,0.0,0.0,89,0.00,,---,0.00,VWS V14.01,2013-09-04 15:46:00,
2013-09-04 08:51:00,59.9,56.7,29.89,NE,54,0.0,0.0,89,0.00,,---,0.00,VWS V14.01,2013-09-04 15:51:00,
2013-09-04 08:56:00,60.1,56.8,29.89,NE,54,0.0,0.0,89,0.00,,---,0.00,VWS V14.01,2013-09-04 15:56:00,
2013-09-04 09:01:00,60.1,56.5,29.89,NE,54,0.0,0.0,88,0.00,,---,0.00,VWS V14.01,2013-09-04 16:01:00,
2013-09-04 09:06:00,60.3,56.7,29.89,NE,54,0.0,0.0,88,0.00,,---,0.00,VWS V14.01,2013-09-04 16:06:00,
2013-09-04 09:11:00,60.4,56.9,29.89,NE,54,0.0,0.0,88,0.00,,---,0.00,VWS V14.01,2013-09-04 16:11:00,
2013-09-04 09:16:00,60.4,56.9,29.89,NE,54,0.0,0.0,88,0.00,,---,0.00,VWS V14.01,2013-09-04 16:16:00,
2013-09-04 09:21:00,60.6,57.0,29.89,NE,54,0.0,0.0,88,0.00,,---,0.00,VWS V14.01,2013-09-04 16:21:00,
2013-09-04 09:27:00,61.0,57.4,29.89,NE,54,0.0,0.0,88,0.00,,---,0.00,VWS V14.01,2013-09-04 16:27:00,
2013-09-04 09:32:00,61.2,57.6,29.89,NE,54,0.0,0.0,88,0.00,,---,0.00,VWS V14.01,2013-09-04 16:32:00,
2013-09-04 09:37:00,61.5,57.9,29.89,NE,54,0.0,0.0,88,0.00,,---,0.00,VWS V14.01,2013-09-04 16:37:00,
2013-09-04 09:42:00,61.9,58.0,29.89,NE,54,0.0,0.0,87,0.00,,---,0.00,VWS V14.01,2013-09-04 16:42:00,
2013-09-04 09:47:00,62.2,58.3,29.89,NE,54,0.0,0.0,87,0.00,,---,0.00,VWS V14.01,2013-09-04 16:47:00,
2013-09-04 09:52:00,63.0,59.0,29.89,NE,54,0.0,0.0,87,0.00,,---,0.00,VWS V14.01,2013-09-04 16:52:00,
2013-09-04 09:57:00,63.3,59.4,29.89,NE,54,0.0,0.0,87,0.00,,---,0.00,VWS V14.01,2013-09-04 16:57:00,
2013-09-04 10:02:00,63.5,59.2,29.89,NE,54,0.0,0.0,86,0.00,,---,0.00,VWS V14.01,2013-09-04 17:02:00,
2013-09-04 10:07:00,63.7,59.1,29.89,NE,54,0.0,0.0,85,0.00,,---,0.00,VWS V14.01,2013-09-04 17:07:00,
2013-09-04 10:12:00,63.9,59.3,29.89,ENE,64,0.0,0.0,85,0.00,,---,0.00,VWS V14.01,2013-09-04 17:12:00,
2013-09-04 10:17:00,64.2,59.6,29.89,ENE,64,0.0,0.0,85,0.00,,---,0.00,VWS V14.01,2013-09-04 17:17:00,
2013-09-04 10:22:00,64.6,59.6,29.89,ENE,64,0.0,0.0,84,0.00,,---,0.00,VWS V14.01,2013-09-04 17:22:00,
2013-09-04 10:27:00,64.8,59.8,29.89,ENE,64,0.0,0.0,84,0.00,,---,0.00,VWS V14.01,2013-09-04 17:27:00,
2013-09-04 10:32:00,64.9,59.7,29.89,ENE,64,0.0,0.0,83,0.00,,---,0.00,VWS V14.01,2013-09-04 17:32:00,
2013-09-04 10:37:00,65.1,59.5,29.89,ENE,70,0.0,0.0,82,0.00,,---,0.00,VWS V14.01,2013-09-04 17:37:00,
2013-09-04 10:42:00,65.1,59.2,29.89,WSW,242,0.0,0.0,81,0.00,,---,0.00,VWS V14.01,2013-09-04 17:42:00,
2013-09-04 10:47:00,65.5,59.2,29.89,WSW,242,0.0,0.0,80,0.00,,---,0.00,VWS V14.01,2013-09-04 17:47:00,
2013-09-04 10:52:00,66.0,59.3,29.89,WSW,242,0.0,0.0,79,0.00,,---,0.00,VWS V14.01,2013-09-04 17:52:00,
2013-09-04 10:57:00,66.6,58.8,29.89,WSW,253,0.0,0.0,76,0.00,,---,0.00,VWS V14.01,2013-09-04 17:57:00,
2013-09-04 11:02:00,67.3,58.7,29.89,WSW,253,0.0,0.0,74,0.00,,---,0.00,VWS V14.01,2013-09-04 18:02:00,
2013-09-04 11:07:00,67.8,58.9,29.89,South,173,0.0,0.0,73,0.00,,---,0.00,VWS V14.01,2013-09-04 18:07:00,
2013-09-04 11:12:00,68.4,58.2,29.89,SE,125,0.0,0.0,70,0.00,,---,0.00,VWS V14.01,2013-09-04 18:12:00,
2013-09-04 11:17:00,69.1,58.9,29.89,SSE,163,0.0,3.1,70,0.00,,---,0.00,VWS V14.01,2013-09-04 18:17:00,
2013-09-04 11:23:00,69.8,59.2,29.89,South,176,0.0,0.0,69,0.00,,---,0.00,VWS V14.01,2013-09-04 18:23:00,
2013-09-04 11:28:00,70.3,59.7,29.89,SE,142,0.0,0.0,69,0.00,,---,0.00,VWS V14.01,2013-09-04 18:28:00,
2013-09-04 11:33:00,71.1,59.1,29.89,SE,143,0.0,0.0,66,0.00,,---,0.00,VWS V14.01,2013-09-04 18:33:00,
2013-09-04 11:38:00,71.6,60.5,29.89,West,265,0.0,0.0,68,0.00,,---,0.00,VWS V14.01,2013-09-04 18:38:00,
2013-09-04 11:43:00,72.1,60.6,29.89,WSW,239,0.0,0.0,67,0.00,,---,0.00,VWS V14.01,2013-09-04 18:43:00,
2013-09-04 11:48:00,73.0,59.7,29.89,SW,228,3.1,4.0,63,0.00,,---,0.00,VWS V14.01,2013-09-04 18:48:00,
2013-09-04 11:53:00,73.8,58.5,29.89,WSW,240,3.1,4.9,59,0.00,,---,0.00,VWS V14.01,2013-09-04 18:53:00,
2013-09-04 11:58:00,74.5,59.2,29.89,WSW,244,3.1,4.9,59,0.00,,---,0.00,VWS V14.01,2013-09-04 18:58:00,
2013-09-04 12:03:00,75.0,58.3,29.89,WSW,243,2.2,4.9,56,0.00,,---,0.00,VWS V14.01,2013-09-04 19:03:00,
2013-09-04 12:08:00,75.4,57.1,29.89,WSW,240,4.0,4.9,53,0.00,,---,0.00,VWS V14.01,2013-09-04 19:08:00,
2013-09-04 12:13:00,75.6,56.7,29.89,SW,235,0.0,4.0,52,0.00,,---,0.00,VWS V14.01,2013-09-04 19:13:00,
2013-09-04 12:18:00,75.9,56.0,29.89,WSW,245,3.1,5.4,50,0.00,,---,0.00,VWS V14.01,2013-09-04 19:18:00,
2013-09-04 12:23:00,76.3,54.6,29.89,North,353,2.2,3.1,47,0.00,,---,0.00,VWS V14.01,2013-09-04 19:23:00,
2013-09-04 12:28:00,76.3,56.3,29.89,SSE,153,0.0,4.0,50,0.00,,---,0.00,VWS V14.01,2013-09-04 19:28:00,
2013-09-04 12:33:00,76.3,55.7,29.86,SSE,153,3.1,3.6,49,0.00,,---,0.00,VWS V14.01,2013-09-04 19:33:00,
2013-09-04 12:38:00,76.6,55.5,29.86,SW,216,2.2,3.6,48,0.00,,---,0.00,VWS V14.01,2013-09-04 19:38:00,
2013-09-04 12:43:00,77.2,56.0,29.86,SE,136,0.0,3.6,48,0.00,,---,0.00,VWS V14.01,2013-09-04 19:43:00,
2013-09-04 12:48:00,77.7,56.5,29.86,SSW,209,0.0,3.6,48,0.00,,---,0.00,VWS V14.01,2013-09-04 19:48:00,
2013-09-04 12:53:00,78.3,57.5,29.86,SE,142,3.1,4.0,49,0.00,,---,0.00,VWS V14.01,2013-09-04 19:53:00,
2013-09-04 12:58:00,78.8,57.5,29.86,SSW,202,0.0,4.0,48,0.00,,---,0.00,VWS V14.01,2013-09-04 19:58:00,
2013-09-04 13:03:00,79.5,58.1,29.86,SW,229,0.0,4.0,48,0.00,,---,0.00,VWS V14.01,2013-09-04 20:03:00,
2013-09-04 13:08:00,80.1,56.2,29.86,South,184,3.6,4.0,44,0.00,,---,0.00,VWS V14.01,2013-09-04 20:08:00,
2013-09-04 13:13:00,80.4,56.5,29.86,WSW,239,3.1,3.1,44,0.00,,---,0.00,VWS V14.01,2013-09-04 20:13:00,
2013-09-04 13:19:00,80.6,56.1,29.86,WSW,239,3.1,4.0,43,0.00,,---,0.00,VWS V14.01,2013-09-04 20:19:00,
2013-09-04 13:24:00,81.1,57.2,29.86,SW,235,2.7,4.0,44,0.00,,---,0.00,VWS V14.01,2013-09-04 20:24:00,
2013-09-04 13:29:00,81.7,57.7,29.86,WSW,244,2.2,4.9,44,0.00,,---,0.00,VWS V14.01,2013-09-04 20:29:00,
2013-09-04 13:34:00,82.0,57.4,29.86,SW,224,3.6,4.0,43,0.00,,---,0.00,VWS V14.01,2013-09-04 20:34:00,
2013-09-04 13:39:00,82.2,56.2,29.86,WSW,239,5.4,8.1,41,0.00,,---,0.00,VWS V14.01,2013-09-04 20:39:00,
2013-09-04 13:44:00,82.2,56.2,29.86,SW,216,0.0,5.8,41,0.00,,---,0.00,VWS V14.01,2013-09-04 20:44:00,
2013-09-04 13:49:00,82.6,55.8,29.86,SW,221,2.7,5.8,40,0.00,,---,0.00,VWS V14.01,2013-09-04 20:49:00,
2013-09-04 13:54:00,82.8,56.0,29.86,NW,305,2.7,5.8,40,0.00,,---,0.00,VWS V14.01,2013-09-04 20:54:00,
2013-09-04 13:59:00,82.8,55.3,29.86,WNW,301,4.0,5.8,39,0.00,,---,0.00,VWS V14.01,2013-09-04 20:59:00,
2013-09-04 14:04:00,82.6,55.8,29.86,SSE,157,3.1,4.9,40,0.00,,---,0.00,VWS V14.01,2013-09-04 21:04:00,
2013-09-04 14:09:00,82.4,55.0,29.86,West,260,2.2,7.6,39,0.00,,---,0.00,VWS V14.01,2013-09-04 21:09:00,
2013-09-04 14:14:00,82.2,55.5,29.86,WNW,292,2.2,6.3,40,0.00,,---,0.00,VWS V14.01,2013-09-04 21:14:00,
2013-09-04 14:19:00,82.0,54.7,29.86,West,269,0.0,6.3,39,0.00,,---,0.00,VWS V14.01,2013-09-04 21:19:00,
2013-09-04 14:24:00,82.0,55.4,29.86,WSW,240,0.0,5.8,40,0.00,,---,0.00,VWS V14.01,2013-09-04 21:24:00,
2013-09-04 14:29:00,82.2,56.2,29.86,South,187,2.7,5.8,41,0.00,,---,0.00,VWS V14.01,2013-09-04 21:29:00,
2013-09-04 14:34:00,82.4,56.4,29.86,WSW,243,4.5,5.4,41,0.00,,---,0.00,VWS V14.01,2013-09-04 21:34:00,
2013-09-04 14:39:00,82.4,56.4,29.86,NNE,19,3.1,5.4,41,0.00,,---,0.00,VWS V14.01,2013-09-04 21:39:00,
2013-09-04 14:44:00,82.2,55.5,29.86,SE,132,2.7,4.0,40,0.00,,---,0.00,VWS V14.01,2013-09-04 21:44:00,
2013-09-04 14:49:00,82.0,55.4,29.86,North,0,0.0,8.7,40,0.00,,---,0.00,VWS V14.01,2013-09-04 21:49:00,
2013-09-04 14:54:00,82.0,55.4,29.86,NNE,28,5.4,5.4,40,0.00,,---,0.00,VWS V14.01,2013-09-04 21:54:00,
2013-09-04 14:59:00,82.4,55.7,29.86,WSW,256,2.7,6.3,40,0.00,,---,0.00,VWS V14.01,2013-09-04 21:59:00,
2013-09-04 15:04:00,82.6,55.8,29.86,North,0,0.0,3.6,40,0.00,,---,0.00,VWS V14.01,2013-09-04 22:04:00,
2013-09-04 15:09:00,82.6,56.5,29.86,NNW,345,4.0,4.9,41,0.00,,---,0.00,VWS V14.01,2013-09-04 22:09:00,
2013-09-04 15:14:00,82.6,56.5,29.86,North,11,3.1,6.3,41,0.00,,---,0.00,VWS V14.01,2013-09-04 22:14:00,
2013-09-04 15:20:00,82.4,55.7,29.86,North,0,4.0,6.3,40,0.00,,---,0.00,VWS V14.01,2013-09-04 22:20:00,
2013-09-04 15:25:00,82.2,56.2,29.86,NNW,341,2.7,6.3,41,0.00,,---,0.00,VWS V14.01,2013-09-04 22:25:00,
2013-09-04 15:30:00,81.7,57.0,29.83,North,1,0.0,6.3,43,0.00,,---,0.00,VWS V14.01,2013-09-04 22:30:00,
2013-09-04 15:35:00,81.3,56.7,29.83,North,350,0.0,4.9,43,0.00,,---,0.00,VWS V14.01,2013-09-04 22:35:00,
2013-09-04 15:40:00,81.0,57.0,29.83,North,349,2.7,4.9,44,0.00,,---,0.00,VWS V14.01,2013-09-04 22:40:00,
2013-09-04 15:45:00,80.8,56.2,29.83,North,349,0.0,4.9,43,0.00,,---,0.00,VWS V14.01,2013-09-04 22:45:00,
2013-09-04 15:50:00,80.4,57.2,29.83,West,275,0.0,4.9,45,0.00,,---,0.00,VWS V14.01,2013-09-04 22:50:00,
2013-09-04 15:55:00,80.4,57.8,29.83,West,275,0.0,0.0,46,0.00,,---,0.00,VWS V14.01,2013-09-04 22:55:00,
2013-09-04 16:00:00,80.4,58.4,29.83,West,268,4.0,5.4,47,0.00,,---,0.00,VWS V14.01,2013-09-04 23:00:00,
2013-09-04 16:05:00,80.6,58.5,29.83,NE,53,0.0,7.6,47,0.00,,---,0.00,VWS V14.01,2013-09-04 23:05:00,
2013-09-04 16:10:00,80.4,57.8,29.83,West,273,0.0,0.0,46,0.00,,---,0.00,VWS V14.01,2013-09-04 23:10:00,
2013-09-04 16:15:00,80.1,58.6,29.83,NNW,345,0.0,0.0,48,0.00,,---,0.00,VWS V14.01,2013-09-04 23:15:00,
2013-09-04 16:20:00,80.1,58.6,29.83,North,1,0.0,0.0,48,0.00,,---,0.00,VWS V14.01,2013-09-04 23:20:00,
2013-09-04 16:25:00,79.9,59.6,29.83,North,1,0.0,0.0,50,0.00,,---,0.00,VWS V14.01,2013-09-04 23:25:00,
2013-09-04 16:30:00,79.7,60.5,29.83,NNW,336,0.0,0.0,52,0.00,,---,0.00,VWS V14.01,2013-09-04 23:30:00,
2013-09-04 16:35:00,79.7,57.7,29.83,North,353,2.2,5.4,47,0.00,,---,0.00,VWS V14.01,2013-09-04 23:35:00,
2013-09-04 16:40:00,79.9,57.9,29.83,NNW,341,0.0,0.0,47,0.00,,---,0.00,VWS V14.01,2013-09-04 23:40:00,
2013-09-04 16:45:00,79.7,58.3,29.83,SSW,198,0.0,0.0,48,0.00,,---,0.00,VWS V14.01,2013-09-04 23:45:00,
2013-09-04 16:50:00,79.7,60.0,29.83,SSW,198,0.0,0.0,51,0.00,,---,0.00,VWS V14.01,2013-09-04 23:50:00,
2013-09-04 16:55:00,79.9,60.2,29.83,WSW,249,0.0,2.7,51,0.00,,---,0.00,VWS V14.01,2013-09-04 23:55:00,
2013-09-04 17:00:00,80.1,59.2,29.83,NW,316,0.0,0.0,49,0.00,,---,0.00,VWS V14.01,2013-09-05 00:00:00,
2013-09-04 17:05:00,80.1,60.9,29.83,NW,316,0.0,0.0,52,0.00,,---,0.00,VWS V14.01,2013-09-05 00:05:00,
2013-09-04 17:10:00,80.1,60.9,29.83,NW,324,5.4,5.4,52,0.00,,---,0.00,VWS V14.01,2013-09-05 00:10:00,
2013-09-04 17:15:00,80.1,59.2,29.83,NNW,333,0.0,6.3,49,0.00,,---,0.00,VWS V14.01,2013-09-05 00:15:00,
2013-09-04 17:21:00,79.9,60.2,29.83,North,353,0.0,0.0,51,0.00,,---,0.00,VWS V14.01,2013-09-05 00:21:00,
2013-09-04 17:26:00,79.5,58.7,29.83,NW,304,0.0,4.0,49,0.00,,---,0.00,VWS V14.01,2013-09-05 00:26:00,
2013-09-04 17:31:00,79.3,59.1,29.83,NNW,327,2.2,5.4,50,0.00,,---,0.00,VWS V14.01,2013-09-05 00:31:00,
2013-09-04 17:36:00,79.2,54.8,29.83,NW,314,4.0,6.3,43,0.00,,---,0.00,VWS V14.01,2013-09-05 00:36:00,
2013-09-04 17:41:00,79.3,57.4,29.83,NW,308,0.0,0.0,47,0.00,,---,0.00,VWS V14.01,2013-09-05 00:41:00,
2013-09-04 17:46:00,79.2,58.4,29.83,West,274,0.0,0.0,49,0.00,,---,0.00,VWS V14.01,2013-09-05 00:46:00,
2013-09-04 17:51:00,79.0,59.3,29.83,NW,320,0.0,0.0,51,0.00,,---,0.00,VWS V14.01,2013-09-05 00:51:00,
2013-09-04 17:56:00,78.6,60.1,29.83,NW,320,0.0,0.0,53,0.00,,---,0.00,VWS V14.01,2013-09-05 00:56:00,
2013-09-04 18:01:00,78.3,60.3,29.83,NW,320,0.0,0.0,54,0.00,,---,0.00,VWS V14.01,2013-09-05 01:01:00,
2013-09-04 18:06:00,78.1,60.6,29.83,NW,320,0.0,0.0,55,0.00,,---,0.00,VWS V14.01,2013-09-05 01:06:00,
2013-09-04 18:11:00,77.7,60.8,29.83,NW,320,0.0,0.0,56,0.00,,---,0.00,VWS V14.01,2013-09-05 01:11:00,
2013-09-04 18:16:00,77.5,61.6,29.83,WNW,300,3.6,3.6,58,0.00,,---,0.00,VWS V14.01,2013-09-05 01:16:00,
2013-09-04 18:21:00,77.2,62.2,29.83,ESE,111,0.0,0.0,60,0.00,,---,0.00,VWS V14.01,2013-09-05 01:21:00,
2013-09-04 18:26:00,77.0,61.6,29.83,NNW,345,0.0,4.0,59,0.00,,---,0.00,VWS V14.01,2013-09-05 01:26:00,
2013-09-04 18:31:00,76.8,61.4,29.83,NNW,345,0.0,0.0,59,0.00,,---,0.00,VWS V14.01,2013-09-05 01:31:00,
2013-09-04 18:36:00,76.5,61.1,29.83,NNW,345,0.0,0.0,59,0.00,,---,0.00,VWS V14.01,2013-09-05 01:36:00,
2013-09-04 18:41:00,75.9,61.5,29.83,NNW,345,0.0,0.0,61,0.00,,---,0.00,VWS V14.01,2013-09-05 01:41:00,
2013-09-04 18:46:00,75.2,60.8,29.83,ENE,59,0.0,0.0,61,0.00,,---,0.00,VWS V14.01,2013-09-05 01:46:00,
2013-09-04 18:51:00,74.8,60.5,29.83,SSE,163,0.0,0.0,61,0.00,,---,0.00,VWS V14.01,2013-09-05 01:51:00,
2013-09-04 18:56:00,74.7,60.3,29.83,ESE,111,0.0,0.0,61,0.00,,---,0.00,VWS V14.01,2013-09-05 01:56:00,
2013-09-04 19:01:00,74.5,60.2,29.83,SSE,148,0.0,0.0,61,0.00,,---,0.00,VWS V14.01,2013-09-05 02:01:00,
2013-09-04 19:06:00,74.1,59.8,29.83,SSE,148,0.0,0.0,61,0.00,,---,0.00,VWS V14.01,2013-09-05 02:06:00,
2013-09-04 19:11:00,73.9,59.7,29.83,East,99,0.0,0.0,61,0.00,,---,0.00,VWS V14.01,2013-09-05 02:11:00,
2013-09-04 19:16:00,73.6,59.8,29.83,East,86,0.0,0.0,62,0.00,,---,0.00,VWS V14.01,2013-09-05 02:16:00,
2013-09-04 19:21:00,73.0,59.7,29.83,East,86,0.0,0.0,63,0.00,,---,0.00,VWS V14.01,2013-09-05 02:21:00,
2013-09-04 19:27:00,72.7,59.4,29.83,East,90,0.0,3.1,63,0.00,,---,0.00,VWS V14.01,2013-09-05 02:27:00,
2013-09-04 19:32:00,72.5,59.2,29.83,East,92,0.0,4.0,63,0.00,,---,0.00,VWS V14.01,2013-09-05 02:32:00,
2013-09-04 19:37:00,72.1,58.9,29.83,NNE,14,0.0,4.0,63,0.00,,---,0.00,VWS V14.01,2013-09-05 02:37:00,
2013-09-04 19:42:00,72.0,58.7,29.83,NNE,27,2.7,3.6,63,0.00,,---,0.00,VWS V14.01,2013-09-05 02:42:00,
2013-09-04 19:47:00,71.6,58.3,29.83,NNE,17,0.0,3.6,63,0.00,,---,0.00,VWS V14.01,2013-09-05 02:47:00,
2013-09-04 19:52:00,71.2,58.5,29.83,ENE,61,0.0,0.0,64,0.00,,---,0.00,VWS V14.01,2013-09-05 02:52:00,
2013-09-04 19:57:00,71.1,58.3,29.83,ENE,61,0.0,0.0,64,0.00,,---,0.00,VWS V14.01,2013-09-05 02:57:00,
2013-09-04 20:02:00,70.7,58.4,29.86,ESE,103,0.0,0.0,65,0.00,,---,0.00,VWS V14.01,2013-09-05 03:02:00,
2013-09-04 20:07:00,70.5,58.2,29.86,ESE,103,0.0,0.0,65,0.00,,---,0.00,VWS V14.01,2013-09-05 03:07:00,
2013-09-04 20:12:00,70.3,58.0,29.86,East,80,0.0,0.0,65,0.00,,---,0.00,VWS V14.01,2013-09-05 03:12:00,
2013-09-04 20:17:00,70.2,57.9,29.86,NNE,16,0.0,0.0,65,0.00,,---,0.00,VWS V14.01,2013-09-05 03:17:00,
2013-09-04 20:22:00,70.0,58.1,29.86,East,83,0.0,0.0,66,0.00,,---,0.00,VWS V14.01,2013-09-05 03:22:00,
2013-09-04 20:27:00,69.8,57.9,29.86,East,83,0.0,3.6,66,0.00,,---,0.00,VWS V14.01,2013-09-05 03:27:00,
2013-09-04 20:32:00,69.6,58.2,29.86,East,92,0.0,0.0,67,0.00,,---,0.00,VWS V14.01,2013-09-05 03:32:00,
2013-09-04 20:37:00,69.4,58.0,29.86,East,92,0.0,3.1,67,0.00,,---,0.00,VWS V14.01,2013-09-05 03:37:00,
2013-09-04 20:42:00,69.3,57.8,29.86,East,92,0.0,0.0,67,0.00,,---,0.00,VWS V14.01,2013-09-05 03:42:00,
2013-09-04 20:47:00,69.1,57.3,29.89,NNE,18,2.7,3.1,66,0.00,,---,0.00,VWS V14.01,2013-09-05 03:47:00,
2013-09-04 20:52:00,68.9,57.5,29.89,ENE,58,2.7,2.7,67,0.00,,---,0.00,VWS V14.01,2013-09-05 03:52:00,
2013-09-04 20:57:00,68.7,57.3,29.89,NE,55,0.0,2.7,67,0.00,,---,0.00,VWS V14.01,2013-09-05 03:57:00,
2013-09-04 21:01:00,68.5,57.2,29.89,NNE,19,0.0,0.0,67,0.00,,---,0.00,VWS V14.01,2013-09-05 04:01:00,
2013-09-04 21:02:00,68.5,57.2,29.89,NNE,19,0.0,0.0,67,0.00,,---,0.00,VWS V14.01,2013-09-05 04:02:00,
2013-09-04 21:03:00,68.5,57.2,29.89,NNE,19,0.0,0.0,67,0.00,,---,0.00,VWS V14.01,2013-09-05 04:03:00,
2013-09-04 21:08:00,68.4,57.0,29.89,ENE,78,0.0,5.8,67,0.00,,---,0.00,VWS V14.01,2013-09-05 04:08:00,
2013-09-04 21:13:00,68.0,56.7,29.89,ENE,74,3.6,3.6,67,0.00,,---,0.00,VWS V14.01,2013-09-05 04:13:00,
2013-09-04 21:18:00,68.0,56.7,29.89,ENE,63,2.7,4.5,67,0.00,,---,0.00,VWS V14.01,2013-09-05 04:18:00,
2013-09-04 21:23:00,67.8,56.9,29.89,North,2,3.1,3.6,68,0.00,,---,0.00,VWS V14.01,2013-09-05 04:23:00,
2013-09-04 21:28:00,67.6,56.7,29.89,NNE,14,0.0,3.6,68,0.00,,---,0.00,VWS V14.01,2013-09-05 04:28:00,
2013-09-04 21:33:00,67.5,56.5,29.89,ENE,77,2.7,4.0,68,0.00,,---,0.00,VWS V14.01,2013-09-05 04:33:00,
2013-09-04 21:38:00,67.3,56.8,29.89,ENE,69,0.0,4.0,69,0.00,,---,0.00,VWS V14.01,2013-09-05 04:38:00,
2013-09-04 21:43:00,66.9,56.4,29.89,NE,54,2.7,3.6,69,0.00,,---,0.00,VWS V14.01,2013-09-05 04:43:00,
2013-09-04 21:48:00,66.9,56.4,29.89,ENE,68,0.0,3.6,69,0.00,,---,0.00,VWS V14.01,2013-09-05 04:48:00,
2013-09-04 21:53:00,66.7,56.7,29.89,ENE,67,0.0,0.0,70,0.00,,---,0.00,VWS V14.01,2013-09-05 04:53:00,
2013-09-04 21:58:00,66.6,56.5,29.89,ENE,63,0.0,0.0,70,0.00,,---,0.00,VWS V14.01,2013-09-05 04:58:00,
2013-09-04 22:03:00,66.4,56.3,29.89,ENE,63,0.0,0.0,70,0.00,,---,0.00,VWS V14.01,2013-09-05 05:03:00,
2013-09-04 22:08:00,66.2,56.5,29.89,East,81,0.0,0.0,71,0.00,,---,0.00,VWS V14.01,2013-09-05 05:08:00,
2013-09-04 22:13:00,66.0,56.4,29.89,ENE,63,0.0,0.0,71,0.00,,---,0.00,VWS V14.01,2013-09-05 05:13:00,
2013-09-04 22:19:00,65.8,56.6,29.89,ENE,63,0.0,0.0,72,0.00,,---,0.00,VWS V14.01,2013-09-05 05:19:00,
2013-09-04 22:24:00,65.7,56.4,29.89,ENE,63,0.0,0.0,72,0.00,,---,0.00,VWS V14.01,2013-09-05 05:24:00,
2013-09-04 22:29:00,65.7,56.4,29.89,ENE,63,0.0,0.0,72,0.00,,---,0.00,VWS V14.01,2013-09-05 05:29:00,
2013-09-04 22:34:00,65.5,56.2,29.89,ENE,63,0.0,0.0,72,0.00,,---,0.00,VWS V14.01,2013-09-05 05:34:00,
2013-09-04 22:39:00,65.3,56.0,29.89,East,87,0.0,0.0,72,0.00,,---,0.00,VWS V14.01,2013-09-05 05:39:00,
2013-09-04 22:44:00,65.1,56.3,29.89,East,87,0.0,0.0,73,0.00,,---,0.00,VWS V14.01,2013-09-05 05:44:00,
2013-09-04 22:49:00,65.1,56.3,29.89,North,7,0.0,0.0,73,0.00,,---,0.00,VWS V14.01,2013-09-05 05:49:00,
2013-09-04 22:54:00,64.9,56.1,29.89,NE,56,0.0,0.0,73,0.00,,---,0.00,VWS V14.01,2013-09-05 05:54:00,
2013-09-04 22:59:00,64.8,56.3,29.89,NE,51,0.0,0.0,74,0.00,,---,0.00,VWS V14.01,2013-09-05 05:59:00,
2013-09-04 23:04:00,64.4,55.9,29.89,NE,35,0.0,0.0,74,0.00,,---,0.00,VWS V14.01,2013-09-05 06:04:00,
2013-09-04 23:09:00,64.4,55.9,29.89,NE,35,0.0,0.0,74,0.00,,---,0.00,VWS V14.01,2013-09-05 06:09:00,
2013-09-04 23:14:00,64.2,56.1,29.89,NE,35,0.0,0.0,75,0.00,,---,0.00,VWS V14.01,2013-09-05 06:14:00,
2013-09-04 23:19:00,64.0,56.0,29.89,NE,35,0.0,0.0,75,0.00,,---,0.00,VWS V14.01,2013-09-05 06:19:00,
2013-09-04 23:24:00,63.9,55.8,29.89,NE,49,0.0,0.0,75,0.00,,---,0.00,VWS V14.01,2013-09-05 06:24:00,
2013-09-04 23:29:00,63.7,56.0,29.89,NE,49,0.0,0.0,76,0.00,,---,0.00,VWS V14.01,2013-09-05 06:29:00,
2013-09-04 23:34:00,63.5,55.8,29.89,NNE,27,0.0,0.0,76,0.00,,---,0.00,VWS V14.01,2013-09-05 06:34:00,
2013-09-04 23:39:00,63.5,55.8,29.89,NNE,27,0.0,0.0,76,0.00,,---,0.00,VWS V14.01,2013-09-05 06:39:00,
2013-09-04 23:44:00,63.3,55.6,29.89,NNE,27,0.0,0.0,76,0.00,,---,0.00,VWS V14.01,2013-09-05 06:44:00,
2013-09-04 23:49:00,63.1,55.8,29.89,NNE,27,0.0,0.0,77,0.00,,---,0.00,VWS V14.01,2013-09-05 06:49:00,
2013-09-04 23:54:00,63.0,55.7,29.89,NNE,27,0.0,0.0,77,0.00,,---,0.00,VWS V14.01,2013-09-05 06:54:00,
2013-09-04 23:59:00,62.8,55.8,29.86,NNE,27,0.0,0.0,78,0.00,,---,0.00,VWS V14.01,2013-09-05 06:59:00,